TimeCST,TemperatureF,Dew PointF,Humidity,Sea Level PressureIn,VisibilityMPH,Wind Direction,Wind SpeedMPH,Gust SpeedMPH,PrecipitationIn,Events,Conditions,WindDirDegrees,DateUTC
12:15 AM,72.9,65.7,78,29.64,10.0,SSE,23.0,33.4,N/A,,Overcast,160,2013-02-21 06:15:00
12:35 AM,72.5,65.5,79,29.64,10.0,SSE,23.0,31.1,N/A,,Mostly Cloudy,160,2013-02-21 06:35:00
12:55 AM,72.7,65.7,79,29.63,10.0,SSE,20.7,36.8,N/A,,Overcast,160,2013-02-21 06:55:00
1:15 AM,72.5,65.5,79,29.63,10.0,South,24.2,33.4,N/A,,Overcast,170,2013-02-21 07:15:00
1:35 AM,72.7,65.5,78,29.63,10.0,SSE,25.3,34.5,N/A,,Overcast,160,2013-02-21 07:35:00
1:55 AM,72.9,65.7,78,29.62,10.0,South,24.2,34.5,N/A,,Overcast,170,2013-02-21 07:55:00
2:15 AM,72.7,65.8,79,29.62,10.0,South,20.7,31.1,N/A,,Overcast,170,2013-02-21 08:15:00
2:35 AM,72.5,65.8,80,29.62,10.0,South,19.6,28.8,N/A,,Overcast,170,2013-02-21 08:35:00
2:55 AM,72.5,65.8,80,29.61,10.0,South,16.1,25.3,N/A,,Overcast,170,2013-02-21 08:55:00
3:15 AM,72.1,65.7,80,29.60,7.0,South,23.0,28.8,N/A,,Mostly Cloudy,170,2013-02-21 09:15:00
3:35 AM,72.1,65.7,80,29.61,10.0,South,12.7,24.2,N/A,,Overcast,180,2013-02-21 09:35:00
3:55 AM,72.1,65.7,80,29.61,7.0,South,12.7,21.9,N/A,,Mostly Cloudy,190,2013-02-21 09:55:00
4:15 AM,72.0,65.3,79,29.60,10.0,South,11.5,17.3,N/A,,Scattered Clouds,190,2013-02-21 10:15:00
4:35 AM,71.6,65.3,80,29.60,7.0,South,9.2,-,N/A,,Mostly Cloudy,190,2013-02-21 10:35:00
4:55 AM,71.4,65.3,81,29.60,7.0,South,11.5,-,N/A,,Scattered Clouds,190,2013-02-21 10:55:00
5:15 AM,71.6,65.1,80,29.60,10.0,South,11.5,17.3,N/A,,Clear,190,2013-02-21 11:15:00
5:55 AM,71.2,65.1,81,29.62,10.0,South,10.4,19.6,N/A,,Clear,180,2013-02-21 11:55:00
6:15 AM,71.2,65.3,81,29.62,7.0,South,9.2,-,N/A,,Clear,190,2013-02-21 12:15:00
6:35 AM,71.2,65.3,81,29.63,7.0,South,9.2,-,N/A,,Clear,190,2013-02-21 12:35:00
6:55 AM,70.9,65.3,82,29.64,7.0,South,9.2,-,N/A,,Clear,190,2013-02-21 12:55:00
7:15 AM,70.9,65.1,82,29.65,7.0,South,10.4,-,N/A,,Clear,180,2013-02-21 13:15:00
7:35 AM,71.2,65.3,81,29.66,7.0,South,11.5,-,N/A,,Clear,180,2013-02-21 13:35:00
7:55 AM,71.6,65.5,81,29.66,7.0,South,12.7,19.6,N/A,,Clear,180,2013-02-21 13:55:00
8:15 AM,72.0,65.5,80,29.67,7.0,South,8.1,19.6,N/A,,Clear,190,2013-02-21 14:15:00
8:35 AM,72.7,65.7,79,29.68,7.0,South,10.4,16.1,N/A,,Clear,180,2013-02-21 14:35:00
8:55 AM,73.4,65.7,77,29.68,7.0,South,12.7,20.7,N/A,,Clear,180,2013-02-21 14:55:00
9:15 AM,74.7,65.3,73,29.69,10.0,South,13.8,24.2,N/A,,Clear,180,2013-02-21 15:15:00
9:35 AM,76.8,65.3,67,29.68,10.0,South,18.4,23.0,N/A,,Clear,180,2013-02-21 15:35:00
9:55 AM,77.9,64.8,64,29.68,7.0,South,18.4,27.6,N/A,,Clear,170,2013-02-21 15:55:00
10:15 AM,79.3,64.4,60,29.68,7.0,South,18.4,29.9,N/A,,Clear,170,2013-02-21 16:15:00
10:35 AM,80.1,64.0,58,29.68,7.0,South,18.4,32.2,N/A,,Clear,180,2013-02-21 16:35:00
10:55 AM,81.9,64.0,55,29.68,7.0,South,19.6,28.8,N/A,,Clear,190,2013-02-21 16:55:00
11:15 AM,84.2,63.7,50,29.68,7.0,South,18.4,26.5,N/A,,Clear,180,2013-02-21 17:15:00
11:35 AM,84.7,63.5,49,29.67,10.0,South,15.0,24.2,N/A,,Clear,180,2013-02-21 17:35:00
11:55 AM,87.8,63.7,44,29.67,10.0,South,16.1,24.2,N/A,,Clear,190,2013-02-21 17:55:00
12:15 PM,89.2,62.8,41,29.66,7.0,South,17.3,27.6,N/A,,Clear,190,2013-02-21 18:15:00
12:35 PM,90.7,62.2,39,29.65,7.0,South,18.4,-,N/A,,Clear,180,2013-02-21 18:35:00
12:55 PM,93.2,60.8,34,29.65,7.0,South,16.1,20.7,N/A,,Clear,180,2013-02-21 18:55:00
1:15 PM,93.9,60.3,32,29.63,7.0,South,11.5,20.7,N/A,,Clear,190,2013-02-21 19:15:00
1:35 PM,94.5,58.5,30,29.63,7.0,SSW,11.5,-,N/A,,Clear,200,2013-02-21 19:35:00
1:55 PM,95.9,56.7,27,29.63,7.0,West,9.2,-,N/A,,Clear,260,2013-02-21 19:55:00
2:15 PM,92.7,54.7,28,29.62,10.0,WNW,5.8,-,N/A,,Clear,300,2013-02-21 20:15:00
2:35 PM,91.8,55.8,30,29.62,10.0,West,3.5,-,N/A,,Clear,280,2013-02-21 20:35:00
2:55 PM,92.7,61.0,35,29.62,7.0,NE,10.4,18.4,N/A,,Clear,50,2013-02-21 20:55:00
3:15 PM,90.1,64.8,43,29.62,7.0,SSE,8.1,-,N/A,,Clear,150,2013-02-21 21:15:00
3:35 PM,88.9,66.6,47,29.62,10.0,ESE,9.2,-,N/A,,Clear,120,2013-02-21 21:35:00
3:55 PM,89.8,66.7,46,29.62,10.0,ESE,8.1,-,N/A,,Clear,120,2013-02-21 21:55:00
4:15 PM,89.8,67.3,47,29.62,7.0,SE,6.9,-,N/A,,Clear,130,2013-02-21 22:15:00
4:35 PM,89.6,68.0,49,29.63,10.0,SE,11.5,-,N/A,,Unknown,130,2013-02-21 22:35:00
4:55 PM,85.6,68.0,55,29.63,7.0,SE,8.1,-,N/A,,Clear,130,2013-02-21 22:55:00
5:15 PM,84.4,68.0,58,29.64,7.0,SE,9.2,-,N/A,,Clear,140,2013-02-21 23:15:00
5:55 PM,81.5,68.2,64,29.66,7.0,ESE,5.8,-,N/A,,Unknown,120,2013-02-21 23:55:00
6:15 PM,81.0,68.4,65,29.67,7.0,SE,4.6,-,N/A,,Unknown,140,2013-02-22 00:15:00
6:35 PM,79.7,68.2,68,29.69,7.0,East,8.1,-,N/A,,Unknown,100,2013-02-22 00:35:00
6:55 PM,79.0,68.2,69,29.70,7.0,East,3.5,-,N/A,,Mostly Cloudy,90,2013-02-22 00:55:00
7:15 PM,78.3,68.0,71,29.71,10.0,ENE,5.8,-,N/A,,Scattered Clouds,70,2013-02-22 01:15:00
7:35 PM,78.8,62.8,58,29.73,10.0,NE,12.7,-,N/A,,Clear,50,2013-02-22 01:35:00
7:55 PM,77.9,62.6,59,29.73,10.0,NE,9.2,-,N/A,,Clear,50,2013-02-22 01:55:00
8:15 PM,77.0,62.6,61,29.75,10.0,NNE,8.1,-,N/A,,Clear,30,2013-02-22 02:15:00
8:35 PM,76.8,63.0,62,29.76,10.0,NNE,12.7,18.4,N/A,,Mostly Cloudy,30,2013-02-22 02:35:00
8:55 PM,75.9,63.0,64,29.76,10.0,NNE,10.4,21.9,N/A,,Mostly Cloudy,30,2013-02-22 02:55:00
9:15 PM,75.2,60.8,61,29.78,10.0,NNE,15.0,19.6,N/A,,Mostly Cloudy,30,2013-02-22 03:15:00
9:35 PM,74.5,58.5,57,29.78,10.0,NE,15.0,21.9,N/A,,Overcast,40,2013-02-22 03:35:00
9:55 PM,73.8,56.1,54,29.78,10.0,NNE,11.5,19.6,N/A,,Overcast,30,2013-02-22 03:55:00
10:15 PM,73.2,55.8,54,29.78,10.0,NNE,13.8,-,N/A,,Overcast,30,2013-02-22 04:15:00
10:35 PM,72.7,52.5,49,29.78,10.0,NNE,13.8,18.4,N/A,,Overcast,30,2013-02-22 04:35:00
10:55 PM,72.5,52.5,49,29.79,10.0,NE,11.5,17.3,N/A,,Overcast,40,2013-02-22 04:55:00
11:15 PM,72.1,52.2,49,29.79,10.0,NE,12.7,-,N/A,,Overcast,40,2013-02-22 05:15:00
11:35 PM,72.0,52.9,51,29.79,10.0,NNE,9.2,17.3,N/A,,Overcast,30,2013-02-22 05:35:00
11:55 PM,71.6,53.2,52,29.81,10.0,NE,10.4,17.3,N/A,,Overcast,40,2013-02-22 05:55:00